Wind_Speed
34 29 28 21 17 13 12 13 17 9 8 12 6 10 12 11 9 7 8 11 12 11 11 11 10 8 9 9 6 4 3 3 5 9 11 13 16 17
35 35 33 23 19 16 13 13 13 11 7 9 8 13 9 10 9 7 6 10 8 7 8 7 6 4 2 4 4 4 4 6 7 10 12 14 15 16
32 32 29 25 22 19 17 15 16 12 9 8 14 9 8 7 9 9 9 6 7 8 7 5 4 5 5 6 6 5 7 9 11 12 14 15 16 16
32 29 27 27 24 21 19 18 16 16 11 11 13 14 10 11 11 12 10 10 10 9 7 6 6 5 6 6 5 6 8 10 11 13 15 17 17 18
29 30 29 26 24 20 22 22 21 21 18 17 14 18 12 18 17 13 13 13 10 9 7 6 5 5 5 6 7 8 8 9 13 15 15 16 16 18
29 32 31 28 23 20 21 21 20 20 22 21 16 16 15 15 18 19 17 15 12 8 4 3 3 3 5 6 2 5 6 10 14 15 15 16 17 18
27 27 28 29 23 26 26 25 23 22 19 18 17 14 14 14 23 24 16 17 10 9 6 2 1 1 3 3 5 7 6 11 15 15 16 17 19 20
28 28 27 29 31 27 25 23 23 23 24 22 19 16 23 21 24 23 22 12 5 7 6 2 2 3 2 4 7 3 10 11 15 15 16 18 19 21
26 29 28 27 28 28 27 26 25 27 31 29 26 20 21 23 26 23 19 14 7 8 6 3 0 1 5 6 6 8 11 11 13 14 17 18 19 21
33 33 35 33 30 29 24 18 12 9 8 11 13 14 13 18 20 22 21 18 16 9 6 1 1 3 4 4 7 10 11 12 12 16 16 17 18 22
28 29 32 32 29 27 26 23 21 23 23 18 19 19 20 20 20 24 23 18 6 4 3 2 1 5 3 3 3 9 11 12 14 15 15 16 18 20
19 20 22 25 24 24 25 28 31 26 27 29 29 29 26 24 21 18 14 11 9 7 1 1 2 5 3 2 7 8 8 12 14 13 13 15 16 15
18 16 15 19 22 22 23 25 29 32 33 33 33 30 26 22 18 14 12 8 8 8 5 3 2 3 4 6 8 5 13 14 13 13 15 15 18 16
24 25 25 24 23 20 22 30 31 34 32 32 30 26 21 19 15 13 11 11 13 11 8 7 3 4 5 8 6 12 13 12 11 12 16 16 14 14
33 34 34 36 36 35 30 28 29 27 24 22 22 18 14 16 15 13 12 10 11 9 6 6 3 4 5 6 9 12 14 13 7 15 14 14 13 13
42 35 37 39 38 34 31 28 26 23 22 18 17 16 13 12 12 9 8 6 6 4 5 3 4 6 7 7 8 10 10 10 14 14 15 14 12 11
42 38 33 29 29 28 27 25 24 22 17 16 14 14 13 11 9 8 7 5 5 4 4 4 6 8 7 8 7 7 10 11 13 15 15 15 14 14
32 30 24 24 23 19 21 18 16 17 15 14 14 13 13 10 7 7 6 4 5 4 5 6 9 10 8 3 3 6 9 11 14 14 13 14 15 15
28 22 22 21 19 18 18 18 16 15 14 14 13 12 11 9 6 6 6 5 5 4 5 6 8 11 10 6 9 7 9 13 14 13 13 14 17 21
23 19 20 19 19 17 17 16 14 14 13 13 12 11 9 8 7 6 5 5 4 4 5 5 8 10 9 8 11 16 13 10 13 15 16 16 18 19
20 19 18 18 17 17 18 15 14 13 12 11 10 9 8 7 6 5 4 5 5 5 6 8 10 13 10 11 13 14 14 14 12 15 16 15 14 16
18 18 17 16 16 16 15 15 15 13 11 10 9 8 7 6 5 4 4 4 5 6 7 9 10 10 11 12 14 16 17 16 16 13 14 15 13 8
16 16 16 15 15 15 14 13 12 11 9 9 8 7 6 5 3 3 4 4 5 6 8 11 11 11 12 13 14 16 16 16 15 16 16 14 16 19
Wind_Direction
190 196 206 199 207 195 202 188 171 169 164 162 122 129 137 142 170 210 258 281 288 282 273 277 275 258 245 249 222 130 123 59 27 21 14 5 8 2
190 201 207 196 187 188 158 149 165 172 155 136 121 160 167 164 190 235 235 257 272 257 251 240 229 207 145 95 70 47 28 15 9 1 3 8 4 1
195 195 197 195 185 180 161 158 161 154 160 118 148 172 182 197 194 208 205 199 187 191 187 162 143 119 95 60 41 19 359 356 358 3 4 2 359 356
185 187 185 177 182 185 181 192 196 196 173 162 171 188 195 211 208 201 183 177 185 171 158 135 108 73 48 38 20 355 346 353 4 2 357 352 353 349
177 189 196 190 196 192 206 209 213 213 221 227 203 197 193 195 184 191 181 177 175 158 145 132 98 60 33 27 353 332 359 16 2 355 352 351 352 347
194 195 196 195 193 192 204 208 210 211 203 201 195 196 203 196 198 190 167 176 163 195 200 160 119 65 9 347 347 325 4 8 359 355 353 350 345 340
194 198 200 203 203 210 206 201 203 207 208 212 211 205 200 174 192 196 173 186 176 196 203 229 135 87 52 347 318 331 331 336 349 349 348 346 339 334
203 205 206 204 205 210 218 224 227 232 231 221 215 210 208 200 194 184 171 162 146 169 165 190 156 85 246 248 287 304 325 332 340 343 345 342 334 333
204 208 205 208 217 219 224 230 237 233 241 236 217 212 196 200 190 175 164 146 123 133 125 140 218 305 276 287 288 321 338 332 333 339 342 339 336 334
219 218 219 216 216 217 210 200 195 203 215 209 211 192 190 177 180 175 161 138 123 111 116 147 217 296 293 272 294 335 332 330 336 340 341 340 338 332
210 213 214 211 205 199 190 152 123 97 89 109 121 129 132 136 140 138 127 123 112 123 83 177 33 328 291 232 282 326 329 337 338 339 340 342 339 338
196 203 209 199 183 180 169 153 120 118 120 114 111 112 118 120 124 125 129 119 119 148 50 204 26 360 328 222 329 332 338 332 339 341 343 343 344 350
152 140 146 164 155 156 164 157 142 139 125 121 115 109 99 97 88 99 103 111 129 100 112 102 54 7 342 319 322 334 339 336 341 340 343 346 351 352
125 120 115 110 113 131 125 119 123 130 122 116 112 106 108 110 109 104 97 98 96 105 104 94 85 16 340 321 328 328 336 338 340 345 338 340 344 343
121 116 112 106 102 100 103 104 114 108 104 102 103 104 107 110 110 110 105 98 97 98 90 66 45 349 321 303 311 325 330 338 347 338 335 333 331 333
111 108 109 110 111 111 110 112 111 107 100 98 106 111 110 107 103 105 103 107 92 87 37 39 19 338 318 313 317 319 328 331 331 332 330 325 325 324
124 118 111 104 101 100 101 105 106 104 101 110 111 111 107 101 99 103 99 105 95 74 63 19 349 340 313 302 307 325 334 330 331 327 328 324 323 319
109 102 100 102 101 107 104 99 95 103 108 111 112 112 107 107 103 90 89 78 68 45 29 7 357 352 353 350 335 330 333 331 329 327 321 318 315 319
96 98 104 108 108 108 106 109 111 111 112 110 109 106 106 107 105 92 83 71 50 19 8 0 358 2 356 344 337 354 322 321 322 324 318 313 311 304
102 109 108 112 112 111 110 112 114 110 106 106 106 103 107 111 104 91 69 54 30 8 354 358 4 360 346 333 315 308 311 291 313 312 313 315 314 324
106 108 109 109 114 116 113 115 111 107 107 109 106 106 100 100 90 76 65 46 16 358 350 354 347 337 325 317 309 317 321 308 288 295 300 308 317 320
103 105 106 109 112 114 115 118 115 114 114 111 109 103 96 92 84 68 48 22 7 353 341 334 331 333 331 324 317 318 313 320 315 307 302 286 274 291
103 107 110 113 112 113 118 118 115 113 111 111 108 102 97 92 75 55 31 10 355 347 339 334 333 332 326 320 320 311 317 317 320 323 319 312 301 303
Height
770 777 784 786 789 791 794 796 799 806 816 823 827 831 834 834 838 840 839 839 844 844 842 841 842 842 843 843 844 844 844 842 842 843 842 841 841 840
767 776 782 783 787 791 793 797 800 806 813 821 826 829 831 832 834 838 838 836 841 843 842 839 840 840 842 842 842 843 843 843 841 840 839 838 838 837
763 771 775 779 785 790 792 797 800 806 810 821 821 828 831 831 832 835 833 836 838 839 841 838 839 840 839 841 841 842 842 842 840 838 838 836 835 833
757 765 772 777 782 787 789 794 799 802 808 814 819 825 826 828 830 833 831 835 836 837 838 838 840 841 840 840 840 841 841 840 838 836 835 834 832 831
752 761 766 772 779 781 785 790 795 799 802 810 813 817 821 824 825 830 829 834 833 836 837 837 839 840 840 841 841 840 840 839 836 835 833 832 830 828
754 759 763 768 773 777 782 787 790 794 797 801 806 811 816 820 819 826 827 831 831 834 835 836 837 838 840 839 839 838 838 837 836 833 831 830 827 825
751 756 760 763 768 776 779 782 786 790 794 798 801 803 806 809 811 816 820 825 827 830 833 834 834 836 836 837 837 836 836 835 834 831 828 827 826 823
749 754 756 761 766 771 776 779 783 785 787 790 791 793 795 799 803 809 813 822 826 830 830 834 833 835 837 836 836 834 834 833 832 829 827 824 823 820
745 749 753 758 762 766 770 773 776 779 780 781 782 785 788 792 796 804 810 816 823 829 830 832 834 835 836 836 834 834 832 832 828 826 823 821 819 817
739 743 747 751 755 760 763 767 771 773 775 776 779 783 787 792 797 804 809 814 823 829 830 833 833 833 834 835 834 832 832 830 828 825 821 818 816 815
736 739 743 746 751 755 758 762 767 774 777 778 781 785 790 796 802 806 812 817 824 828 830 832 832 831 831 833 833 830 829 827 825 823 821 818 816 812
734 738 742 746 750 753 755 759 766 776 780 783 786 791 797 802 804 809 815 818 822 827 828 831 830 831 831 830 830 829 826 824 822 821 820 818 815 811
736 741 746 749 752 755 758 761 764 774 780 784 789 796 800 806 812 815 817 821 822 824 827 830 832 832 830 830 829 827 826 823 820 819 817 814 812 810
737 745 752 756 759 762 767 773 775 779 784 787 793 799 804 807 811 815 821 823 823 827 827 828 832 832 832 832 829 827 826 821 820 817 818 814 812 810
740 748 755 760 766 772 777 782 787 792 795 797 799 806 812 813 815 819 821 825 825 827 830 828 832 832 832 831 828 826 824 821 819 819 817 815 812 809
749 756 762 765 768 776 781 785 790 796 799 808 810 811 817 820 820 823 825 829 829 831 829 829 831 832 831 829 828 826 824 823 820 820 817 814 811 808
750 759 765 773 777 783 785 792 794 798 805 808 815 816 818 823 826 826 828 831 830 831 832 832 832 830 829 827 826 824 823 823 822 820 817 813 809 806
758 762 776 778 781 791 792 801 805 804 810 814 816 818 819 825 831 830 830 833 832 833 832 832 832 831 829 825 822 823 824 824 822 819 816 813 808 804
766 778 782 785 793 798 800 802 808 811 815 817 820 822 823 829 833 832 832 832 834 835 834 834 833 832 829 827 825 823 825 823 820 817 815 812 808 802
777 786 788 792 796 800 802 807 814 815 819 820 823 824 828 831 832 834 835 833 835 835 834 835 833 834 833 830 828 824 822 821 819 816 813 810 805 798
786 790 794 796 800 803 805 811 815 818 822 825 827 829 830 833 834 835 835 834 836 836 835 834 834 833 832 829 826 823 821 819 817 814 810 807 802 798
791 795 798 803 806 807 809 814 818 821 824 828 830 831 832 834 835 836 836 836 837 837 836 836 835 832 831 829 825 822 819 816 813 810 807 805 803 799
797 800 803 806 809 812 816 819 821 823 828 829 831 832 833 835 836 836 836 837 837 837 837 836 834 832 830 828 825 822 818 815 810 806 803 801 798 795